Weather in Bukoba

Tanzania     1°19′58″S   31°48′47″E
temp.,
°C
wind,
m/s
gust,
m/s
humid.,
%
clouds,
%
prec.,
mm/h
press.,
hPa
HPBL,
m
2 july, sat
sat200:00+18sw11690 0.0 101511
03:00+16sw22754 0.0 101418
06:00+19s396660 0.1 1015410
09:00+22sse686196 0.1 1017963
12:00+23sse675212 0.0 10171122
15:00+24sse564589 0.0 10141048
18:00+22se365446 0.0 1014431
21:00+18se2266100 0.0 101513
3 july, sun
sun300:00+18sw1166100 0.0 101611
03:00+17sw2264100 0.0 101528
06:00+18s4116225 0.0 1015424
09:00+22sse6105238 0.0 1018891
12:00+24sse68455 0.0 10171114
15:00+25sse56425 0.0 10151012
18:00+23ese36515 0.0 1014359
21:00+18ese11634 0.0 101511
4 july, mon
mon400:00+17ssw11630 0.0 101611
03:00+15wsw22680 0.0 101516
06:00+15ssw22670 0.0 101637
09:00+22s47493 0.0 1017870
12:00+24sse56445 0.0 10171099
15:00+25sse45398 0.0 10141051
18:00+23ese245070 0.0 1014256
21:00+18e11625 0.0 101611
5 july, tue
tue500:00+18ssw116142 0.0 101511
03:00+15wsw2266100 0.0 101525
06:00+15sw2263100 0.0 101616
09:00+23s4850100 0.0 1016809
12:00+26sse55385 0.0 10161297
15:00+26se54385 0.0 10131112
18:00+23ese475424 0.0 1013423
21:00+19ese236934 0.0 101556
6 july, wed
wed600:00+17sw227282 0.0 101512
03:00+15wsw227624 0.0 101421
06:00+15w22715 0.0 101520
09:00+21w23503 0.0 1016219
12:00+26sse56385 0.0 10161164
15:00+27se553711 0.0 1013911
18:00+23ese48535 0.0 1013429
21:00+19se247484 0.0 101471